GW1009 Weather Reports


time (UTC)temp
F
wind
direction
speed
knots
gust
knots
rain 1hr
in
rain 24hr
in
rain mn
in
humidity
%
barometer
mb
20260905202059 67 306 2.6 4.3 0.00 0.00 0.00 72 1011.1
20260905201600 68 306 1.7 4.3 0.00 0.00 0.00 72 1011.0
20260905201059 68 309 1.7 6.1 0.00 0.00 0.00 71 1010.9
20260905200559 67 309 1.7 4.3 0.00 0.00 0.00 71 1010.9
20260905200100 67 303 0.9 3.5 0.00 0.00 0.00 71 1010.8
20260905195558 67 315 0.9 6.1 0.00 0.00 0.00 72 1010.8
20260905195100 66 302 2.6 6.1 0.00 0.00 0.00 71 1010.9
20260905194558 66 313 1.7 4.3 0.00 0.00 0.00 72 1010.8
20260905194057 66 302 2.6 4.3 0.00 0.00 0.00 72 1010.8
20260905193557 66 305 1.7 3.5 0.00 0.00 0.00 73 1010.8
20260905193057 66 302 0.9 3.5 0.00 0.00 0.00 71 1010.8
20260905192557 66 314 0.0 3.5 0.00 0.00 0.00 72 1010.8
20260905192100 66 314 0.9 3.5 0.00 0.00 0.00 71 1010.8
20260905191557 66 298 0.0 7.8 0.00 0.00 0.00 72 1010.9
20260905191057 67 301 2.6 7.8 0.00 0.00 0.00 69 1010.8
20260905190556 67 333 4.3 7.8 0.00 0.00 0.00 69 1010.9
20260905185558 68 292 3.5 5.2 0.00 0.00 0.00 66 1010.7
20260905185056 68 314 2.6 5.2 0.00 0.00 0.00 64 1010.7
20260905184601 68 309 1.7 4.3 0.00 0.00 0.00 64 1010.7
20260905184054 68 306 1.7 4.3 0.00 0.00 0.00 62 1010.8
20260905183555 68 333 1.7 5.2 0.00 0.00 0.00 64 1010.8
20260905183117 68 322 3.5 7.0 0.00 0.00 0.00 64 1010.8
20260905182554 68 322 2.6 7.0 0.00 0.00 0.00 64 1010.7
20260905182054 68 333 2.6 5.2 0.00 0.00 0.00 66 1010.8
20260905181559 68 293 0.0 7.8 0.00 0.00 0.00 62 1010.8
20260905181056 68 302 4.3 7.8 0.00 0.00 0.00 61 1010.8
20260905180553 68 302 2.6 5.2 0.00 0.00 0.00 63 1010.8
20260905180052 68 325 2.6 7.0 0.00 0.00 0.00 63 1010.8
20260905175551 68 302 4.3 7.0 0.00 0.00 0.00 64 1010.8
20260905175052 68 315 1.7 5.2 0.00 0.00 0.00 65 1010.8
20260905174551 68 327 1.7 7.0 0.00 0.00 0.00 64 1010.9
20260905174051 68 311 2.6 7.0 0.00 0.00 0.00 64 1010.9
20260905173551 68 297 3.5 7.8 0.00 0.00 0.00 64 1010.9
20260905173051 68 306 3.5 8.7 0.00 0.00 0.00 62 1010.8
20260905172551 69 315 2.6 8.7 0.00 0.00 0.00 62 1010.9
20260905172050 68 240 0.0 5.2 0.00 0.00 0.00 63 1010.9
20260905171550 68 323 2.6 7.0 0.00 0.00 0.00 65 1010.9
20260905171049 68 295 2.6 9.6 0.00 0.00 0.00 64 1010.9
20260905170549 69 300 4.3 9.6 0.00 0.00 0.00 64 1011.0
20260905170049 69 9 2.6 7.0 0.00 0.00 0.00 64 1011.0
20260905165548 68 293 1.7 11.3 0.00 0.00 0.00 66 1011.0
20260905165049 68 306 6.1 11.3 0.00 0.00 0.00 63 1011.0
20260905164547 67 341 1.7 8.7 0.00 0.00 0.00 66 1011.0
20260905164046 67 355 3.5 9.6 0.00 0.00 0.00 65 1011.1
20260905163545 67 331 6.1 10.4 0.00 0.00 0.00 69 1011.0
20260905163045 66 294 2.6 13.0 0.00 0.00 0.00 69 1011.1
20260905162547 67 314 6.1 13.0 0.00 0.00 0.00 68 1011.1
20260905162043 67 11 3.5 7.8 0.00 0.00 0.00 68 1011.2
20260905161542 66 349 3.5 8.7 0.00 0.00 0.00 68 1011.2
20260905161042 65 316 5.2 11.3 0.00 0.00 0.00 71 1011.3
20260905160541 66 348 5.2 11.3 0.00 0.00 0.00 71 1011.2
20260905160041 66 325 4.3 10.4 0.00 0.00 0.00 70 1011.2
20260905155539 66 339 3.5 9.6 0.00 0.00 0.00 73 1011.2
20260905155040 65 317 2.6 5.2 0.00 0.00 0.00 72 1011.4
20260905154539 64 309 1.7 9.6 0.00 0.00 0.00 74 1011.4
20260905154039 64 299 5.2 12.2 0.00 0.00 0.00 73 1011.4
20260905153538 65 320 7.0 12.2 0.00 0.00 0.00 73 1011.4
20260905153052 65 318 6.1 10.4 0.00 0.00 0.00 73 1011.5
20260905152538 65 313 5.2 10.4 0.00 0.00 0.00 73 1011.5
20260905152035 65 293 7.0 10.4 0.00 0.00 0.00 74 1011.4
20260905151540 64 311 5.2 10.4 0.00 0.00 0.00 78 1011.5
20260905151034 64 306 3.5 9.6 0.00 0.00 0.00 79 1011.6
20260905150533 63 320 6.1 9.6 0.00 0.00 0.00 78 1011.7
20260905150033 63 343 4.3 9.6 0.00 0.00 0.00 79 1011.6
20260905145533 63 319 6.1 9.6 0.00 0.00 0.00 80 1011.6
20260905145031 63 300 4.3 9.6 0.00 0.00 0.00 81 1011.5
20260905144531 62 290 5.2 9.6 0.00 0.00 0.00 82 1011.5
20260905144031 62 304 6.1 9.6 0.00 0.00 0.00 82 1011.6
20260905143532 62 302 5.2 9.6 0.00 0.00 0.00 82 1011.5
20260905143035 62 327 2.6 9.6 0.00 0.00 0.00 83 1011.4
20260905142532 62 360 4.3 9.6 0.00 0.00 0.00 83 1011.5
20260905142030 62 304 4.3 10.4 0.00 0.00 0.00 83 1011.4
20260905141530 62 323 5.2 10.4 0.00 0.00 0.00 83 1011.4
20260905141031 62 321 5.2 10.4 0.00 0.00 0.00 83 1011.4
20260905140532 62 308 4.3 9.6 0.00 0.00 0.00 82 1011.4
20260905140030 62 313 6.1 9.6 0.00 0.00 0.00 81 1011.4
20260905135630 63 323 3.5 7.8 0.00 0.00 0.00 81 1011.4
20260905135029 63 311 3.5 7.8 0.00 0.00 0.00 81 1011.4
20260905134526 62 320 2.6 8.7 0.00 0.00 0.00 84 1011.5
20260905134025 62 307 5.2 8.7 0.00 0.00 0.00 85 1011.3
20260905133525 61 327 2.6 9.6 0.00 0.00 0.00 84 1011.4
20260905133030 61 317 5.2 9.6 0.00 0.00 0.00 85 1011.6
20260905132524 61 360 2.6 7.8 0.00 0.00 0.00 86 1011.6
20260905132023 61 302 4.3 8.7 0.00 0.00 0.00 87 1011.7
20260905131530 61 319 5.2 8.7 0.00 0.00 0.00 89 1011.5
20260905131020 61 355 3.5 7.8 0.00 0.00 0.00 90 1011.4
20260905130518 60 321 4.3 7.8 0.00 0.00 0.00 91 1011.4
20260905130031 60 309 2.6 7.8 0.00 0.00 0.00 92 1011.5
20260905125515 59 315 2.6 7.8 0.00 0.00 0.00 93 1011.4
20260905125015 59 311 4.3 7.8 0.00 0.00 0.00 93 1011.4
20260905124515 59 292 4.3 7.8 0.00 0.00 0.00 93 1011.5
20260905124014 59 313 2.6 4.3 0.00 0.00 0.00 94 1011.5
20260905123514 59 306 1.7 3.5 0.00 0.00 0.00 94 1011.4
20260905123014 59 304 1.7 4.3 0.00 0.00 0.00 94 1011.4
20260905122518 59 360 2.6 4.3 0.00 0.00 0.00 94 1011.3
20260905122012 58 303 1.7 4.3 0.00 0.00 0.00 94 1011.1
20260905121512 58 305 2.6 4.3 0.00 0.00 0.00 94 1011.1
20260905121012 58 304 2.6 5.2 0.00 0.00 0.00 94 1011.1
20260905120512 58 302 2.6 5.2 0.00 0.00 0.00 94 1011.0
20260905120012 58 277 3.5 7.0 0.00 0.00 0.00 94 1011.1
20260905115512 58 300 1.7 7.0 0.00 0.00 0.00 94 1011.2
20260905115012 58 294 1.7 6.1 0.00 0.00 0.00 94 1011.2
20260905114510 58 284 1.7 7.0 0.00 0.00 0.00 94 1011.1
20260905114009 58 319 2.6 7.0 0.00 0.00 0.00 94 1010.9
20260905113509 58 290 1.7 4.3 0.00 0.00 0.00 94 1010.9
20260905113012 58 300 1.7 4.3 0.00 0.00 0.00 94 1010.8
20260905112508 58 300 1.7 3.5 0.00 0.00 0.00 94 1010.8
20260905112010 58 306 0.0 1.7 0.00 0.00 0.00 94 1010.6
20260905111507 58 306 0.0 1.7 0.00 0.00 0.00 94 1010.5
20260905111007 58 306 0.0 5.2 0.00 0.00 0.00 94 1010.3
20260905110507 58 306 2.6 5.2 0.00 0.00 0.00 94 1010.2
20260905110007 58 300 0.9 2.6 0.00 0.00 0.00 94 1010.2
20260905105506 58 300 0.9 4.3 0.00 0.00 0.00 94 1010.0
20260905105007 58 299 1.7 4.3 0.00 0.00 0.00 94 1010.0
20260905104506 58 277 1.7 4.3 0.00 0.00 0.00 94 1009.9
20260905104006 58 312 2.6 4.3 0.00 0.00 0.00 94 1010.0
20260905103506 57 306 0.0 0.0 0.00 0.00 0.00 94 1010.0
20260905103008 57 306 0.0 0.0 0.00 0.00 0.00 93 1010.0
20260905102505 57 306 0.0 0.0 0.00 0.00 0.00 93 1010.0
20260905102004 58 306 0.0 0.0 0.00 0.00 0.00 93 1010.0
20260905101504 58 306 0.0 0.0 0.00 0.00 0.00 93 1009.9
20260905101003 58 306 0.0 0.0 0.00 0.00 0.00 93 1009.8
20260905100503 58 306 0.0 0.0 0.00 0.00 0.00 93 1009.7
20260905100003 58 306 0.0 0.0 0.00 0.00 0.00 93 1009.7
20260905095504 58 306 0.0 0.0 0.00 0.00 0.00 93 1009.8
20260905095004 58 306 0.0 0.0 0.00 0.00 0.00 93 1009.9
20260905094504 58 306 0.0 0.0 0.00 0.00 0.00 93 1009.9
20260905094002 58 306 0.0 0.0 0.00 0.00 0.00 93 1009.9
20260905093502 58 306 0.0 0.0 0.00 0.00 0.00 93 1009.9
20260905093001 58 306 0.0 0.0 0.00 0.00 0.00 93 1009.9
20260905092501 58 306 0.0 0.0 0.00 0.00 0.00 93 1009.9
20260905092059 58 306 0.0 0.0 0.00 0.00 0.00 92 1009.9
20260905091601 58 305 0.0 0.0 0.00 0.00 0.00 92 1009.8
20260905091058 58 304 0.0 0.0 0.00 0.00 0.00 92 1009.8
20260905090558 58 320 0.0 0.0 0.00 0.00 0.00 92 1009.7
20260905090058 58 320 0.0 0.0 0.00 0.00 0.00 92 1009.7
20260905085558 58 320 0.0 0.0 0.00 0.00 0.00 92 1009.8
20260905085058 58 329 0.0 0.0 0.00 0.00 0.00 92 1009.9
20260905084656 58 329 0.0 0.0 0.00 0.00 0.00 92 1009.9
20260905084056 58 329 0.0 0.0 0.00 0.00 0.00 91 1009.8
20260905083556 58 329 0.0 0.0 0.00 0.00 0.00 91 1009.9
20260905083055 59 329 0.0 0.0 0.00 0.00 0.00 91 1009.9
20260905082554 59 329 0.0 0.0 0.00 0.00 0.00 91 1010.0
20260905082053 59 329 0.0 0.0 0.00 0.00 0.00 91 1010.0
20260905081553 60 329 0.0 0.0 0.00 0.00 0.00 91 1010.0
20260905081052 60 329 0.0 0.0 0.00 0.00 0.00 91 1010.0
20260905080552 60 329 0.0 0.0 0.00 0.00 0.00 91 1010.0
20260905080054 60 329 0.0 0.0 0.00 0.00 0.00 91 1010.0
20260905075554 60 329 0.0 0.0 0.00 0.00 0.00 91 1010.1
20260905075054 60 329 0.0 0.0 0.00 0.00 0.00 91 1010.1
20260905074557 60 329 0.0 0.0 0.00 0.00 0.00 91 1010.1
20260905074052 60 329 0.0 0.0 0.00 0.00 0.00 91 1010.0
20260905073551 60 329 0.0 0.0 0.00 0.00 0.00 90 1010.0
20260905073101 60 329 0.0 0.0 0.00 0.00 0.00 91 1010.0
20260905072551 60 297 0.0 0.0 0.00 0.00 0.00 90 1010.0
20260905072049 60 279 0.0 0.0 0.00 0.00 0.00 90 1010.0
20260905071550 60 279 0.0 0.0 0.00 0.00 0.00 90 1010.1
20260905071052 60 276 0.0 0.0 0.00 0.00 0.00 90 1010.1
20260905070553 60 275 0.0 0.0 0.00 0.00 0.00 90 1010.2
20260905070049 60 256 0.0 0.0 0.00 0.00 0.00 90 1010.1
20260905065550 60 256 0.0 0.0 0.00 0.00 0.00 90 1010.1
20260905065050 60 270 0.0 0.0 0.00 0.00 0.00 90 1010.2
20260905064547 60 270 0.0 0.0 0.00 0.00 0.00 90 1010.3
20260905064049 60 270 0.0 0.0 0.00 0.00 0.00 90 1010.4
20260905063547 60 270 0.0 0.0 0.00 0.00 0.00 89 1010.3
20260905063046 59 270 0.0 0.0 0.00 0.00 0.00 89 1010.3
20260905062547 60 270 0.0 0.0 0.00 0.00 0.00 89 1010.4
20260905062048 60 270 0.0 0.0 0.00 0.00 0.00 88 1010.4
20260905061545 60 270 0.0 0.0 0.00 0.00 0.00 88 1010.4
20260905061048 60 270 0.0 0.0 0.00 0.00 0.00 88 1010.4
20260905060549 60 270 0.0 0.0 0.00 0.00 0.00 87 1010.3
20260905060046 60 270 0.0 0.0 0.00 0.00 0.00 87 1010.4
20260905055543 60 270 0.0 0.0 0.00 0.00 0.00 87 1010.4
20260905055043 60 270 0.0 0.0 0.00 0.00 0.00 86 1010.5
20260905054546 60 270 0.0 0.0 0.00 0.00 0.00 86 1010.6
20260905054042 60 270 0.0 0.0 0.00 0.00 0.00 86 1010.5
20260905053542 60 270 0.0 0.0 0.00 0.00 0.00 86 1010.6
20260905053100 60 270 0.0 0.0 0.00 0.00 0.00 86 1010.7
20260905052541 60 312 0.0 0.0 0.00 0.00 0.00 86 1010.7
20260905052040 60 251 0.0 0.0 0.00 0.00 0.00 86 1010.7
20260905051539 60 251 0.0 0.0 0.00 0.00 0.00 86 1010.7
20260905051039 60 293 0.0 0.0 0.00 0.00 0.00 86 1010.8
20260905050539 60 293 0.0 0.0 0.00 0.00 0.00 86 1010.8
20260905050039 60 293 0.0 0.0 0.00 0.00 0.00 86 1010.8
20260905045540 60 293 0.0 0.0 0.00 0.00 0.00 87 1010.8
20260905045038 60 293 0.0 0.0 0.00 0.00 0.00 87 1010.8
20260905044538 60 293 0.0 0.0 0.00 0.00 0.00 87 1010.8
20260905044037 60 293 0.0 0.0 0.00 0.00 0.00 87 1010.9
20260905043537 60 293 0.0 0.0 0.00 0.00 0.00 87 1010.9
20260905043037 60 293 0.0 0.0 0.00 0.00 0.00 87 1010.9
20260905042538 60 292 0.0 0.0 0.00 0.00 0.00 88 1010.9
20260905042034 60 294 0.0 0.0 0.00 0.00 0.00 88 1010.9
20260905041532 60 294 0.0 0.0 0.00 0.00 0.00 88 1010.9
20260905041032 59 293 0.0 0.0 0.00 0.00 0.00 88 1010.9
20260905040534 59 293 0.0 0.0 0.00 0.00 0.00 89 1010.9
20260905040030 59 293 0.0 0.0 0.00 0.00 0.00 89 1010.9
20260905035531 59 293 0.0 0.0 0.00 0.00 0.00 89 1011.0
20260905035031 59 293 0.0 0.0 0.00 0.00 0.00 89 1011.0
20260905034530 59 293 0.0 0.0 0.00 0.00 0.00 89 1010.9
20260905034029 59 293 0.0 0.0 0.00 0.00 0.00 89 1010.9
20260905033531 59 293 0.0 0.0 0.00 0.00 0.00 88 1010.9
20260905033041 59 293 0.0 0.0 0.00 0.00 0.00 88 1010.9
20260905032528 59 293 0.0 0.0 0.00 0.00 0.00 88 1010.9
20260905032028 59 293 0.0 0.0 0.00 0.00 0.00 87 1010.9
20260905031529 60 293 0.0 0.0 0.00 0.00 0.00 87 1010.8
20260905031032 60 293 0.0 0.0 0.00 0.00 0.00 86 1010.8
20260905030528 60 293 0.0 0.0 0.00 0.00 0.00 86 1010.8
20260905030028 60 293 0.0 0.0 0.00 0.00 0.00 86 1010.8
20260905025531 60 293 0.0 0.0 0.00 0.00 0.00 86 1010.8
20260905025028 60 293 0.0 0.0 0.00 0.00 0.00 86 1010.9
20260905024528 60 293 0.0 0.0 0.00 0.00 0.00 87 1010.9
20260905024031 60 293 0.0 0.0 0.00 0.00 0.00 87 1011.0
20260905023527 60 293 0.0 0.0 0.00 0.00 0.00 87 1011.1
20260905023028 60 293 0.0 0.0 0.00 0.00 0.00 87 1011.1
20260905022527 59 293 0.0 0.0 0.00 0.00 0.00 88 1011.1
20260905022027 59 293 0.0 0.0 0.00 0.00 0.00 88 1011.2
20260905021534 59 293 0.0 0.0 0.00 0.00 0.00 88 1011.2
20260905021028 59 293 0.0 0.0 0.00 0.00 0.00 87 1011.3
20260905020526 59 293 0.0 0.0 0.00 0.00 0.00 87 1011.3
20260905020029 59 293 0.0 0.0 0.00 0.00 0.00 87 1011.3
20260905015525 59 293 0.0 0.0 0.00 0.00 0.00 87 1011.2
20260905015030 59 293 0.0 0.0 0.00 0.00 0.00 87 1011.3
20260905014526 59 293 0.0 0.0 0.00 0.00 0.00 87 1011.4
20260905014024 59 293 0.0 0.0 0.00 0.00 0.00 86 1011.3
20260905013525 59 293 0.0 0.0 0.00 0.00 0.00 86 1011.4
20260905013023 60 293 0.0 0.0 0.00 0.00 0.00 85 1011.4
20260905012524 60 293 0.0 0.0 0.00 0.00 0.00 85 1011.4
20260905012022 60 294 0.0 1.7 0.00 0.00 0.00 84 1011.4
20260905011523 60 294 0.0 1.7 0.00 0.00 0.00 84 1011.3
20260905011022 60 294 0.0 0.0 0.00 0.00 0.00 84 1011.3
20260905010524 60 294 0.0 0.0 0.00 0.00 0.00 83 1011.2
20260905010021 60 294 0.0 0.0 0.00 0.00 0.00 82 1011.3
20260905005522 60 294 0.0 0.0 0.00 0.00 0.00 82 1011.4
20260905005022 60 294 0.0 0.0 0.00 0.00 0.00 82 1011.3
20260905004524 61 294 0.0 0.0 0.00 0.00 0.00 81 1011.2
20260905004021 61 294 0.0 0.0 0.00 0.00 0.00 81 1011.2
20260905003524 61 294 0.0 0.0 0.00 0.00 0.00 81 1011.2
20260905003021 62 294 0.0 0.0 0.00 0.00 0.00 78 1011.1
20260905002521 62 294 0.0 0.0 0.00 0.00 0.00 78 1011.1
20260905002021 62 294 0.0 0.0 0.00 0.00 0.00 77 1011.1
20260905001521 63 294 0.0 0.9 0.00 0.00 0.00 76 1011.0
20260905001020 63 294 0.0 0.9 0.00 0.00 0.00 75 1011.1
20260905000520 64 294 0.0 1.7 0.00 0.00 0.00 73 1010.9
20260905000020 64 293 0.0 0.9 0.00 0.00 0.00 73 1010.9
20260904235519 64 360 0.0 0.9 0.00 0.00 0.00 71 1010.9
20260904235019 64 293 0.0 2.6 0.00 0.00 0.00 71 1011.0
20260904234519 65 293 0.0 3.5 0.00 0.00 0.00 70 1010.9
20260904234019 65 293 0.9 5.2 0.00 0.00 0.00 69 1010.9
20260904233519 65 284 0.0 5.2 0.00 0.00 0.00 69 1010.9
20260904233020 66 286 0.0 2.6 0.00 0.00 0.00 69 1010.9
20260904232521 66 305 0.0 2.6 0.00 0.00 0.00 68 1010.8
20260904232018 66 306 0.9 4.3 0.00 0.00 0.00 67 1010.8
20260904231522 66 306 1.7 6.1 0.00 0.00 0.00 66 1010.9
20260904231018 66 294 2.6 6.1 0.00 0.00 0.00 66 1010.7
20260904230518 67 298 2.6 7.0 0.00 0.00 0.00 66 1010.8
20260904230021 67 307 2.6 7.8 0.00 0.00 0.00 66 1010.8
20260904225518 67 300 3.5 7.8 0.00 0.00 0.00 65 1010.8
20260904225018 67 304 3.5 7.0 0.00 0.00 0.00 65 1010.8
20260904224517 67 294 3.5 7.0 0.00 0.00 0.00 65 1010.7
20260904224017 67 291 2.6 7.0 0.00 0.00 0.00 65 1010.7
20260904223518 68 253 1.7 8.7 0.00 0.00 0.00 64 1010.7
20260904223023 68 286 1.7 8.7 0.00 0.00 0.00 63 1010.6
20260904222520 68 278 2.6 7.8 0.00 0.00 0.00 64 1010.6
20260904222015 68 294 3.5 7.8 0.00 0.00 0.00 63 1010.7
20260904221515 68 285 3.5 7.8 0.00 0.00 0.00 63 1010.7
20260904221015 68 325 2.6 7.8 0.00 0.00 0.00 64 1010.6
20260904220518 68 299 5.2 8.7 0.00 0.00 0.00 64 1010.6
20260904220015 68 309 4.3 8.7 0.00 0.00 0.00 64 1010.5
20260904215515 68 311 4.3 10.4 0.00 0.00 0.00 63 1010.5
20260904215017 69 311 5.2 10.4 0.00 0.00 0.00 62 1010.5
20260904214518 69 307 5.2 13.0 0.00 0.00 0.00 62 1010.6
20260904214013 70 293 7.0 14.8 0.00 0.00 0.00 61 1010.5
20260904213514 70 299 7.0 13.0 0.00 0.00 0.00 59 1010.6
20260904213025 71 304 6.1 13.9 0.00 0.00 0.00 58 1010.5
20260904212516 71 317 7.8 14.8 0.00 0.00 0.00 56 1010.5
20260904212012 71 285 6.1 15.6 0.00 0.00 0.00 56 1010.5
20260904211518 71 288 7.8 15.6 0.00 0.00 0.00 54 1010.6
20260904211012 71 311 6.1 15.6 0.00 0.00 0.00 55 1010.5
20260904210512 71 310 7.8 13.9 0.00 0.00 0.00 54 1010.6
20260904210023 71 300 5.2 12.2 0.00 0.00 0.00 56 1010.6
20260904205512 71 309 6.1 13.0 0.00 0.00 0.00 56 1010.6
20260904205011 71 306 8.7 13.0 0.00 0.00 0.00 56 1010.6
20260904204520 71 290 7.0 13.9 0.00 0.00 0.00 57 1010.7
20260904204011 71 286 7.8 15.6 0.00 0.00 0.00 56 1010.7
20260904203511 71 277 5.2 13.9 0.00 0.00 0.00 57 1010.7
20260904203011 71 281 7.0 13.9 0.00 0.00 0.00 56 1010.7
20260904202515 71 286 6.1 14.8 0.00 0.00 0.00 55 1010.8